(189450) = 1999 BT28 = 2001 SA106

Discovered at Kitt Peak on 1999-01-18 by Spacewatch.

Orbit

Orbit type: Main Belt

Note: WebGL enabled browser required.

epoch2023-09-13.0
epoch JD2460200.5
perihelion date2023-04-14.19056
perihelion JD2460048.69056
argument of perihelion (°)60.84215
ascending node (°)300.38266
inclination (°)4.47257
eccentricity0.2557731
perihelion distance (AU)1.7505501
Tisserand w.r.t. Jupiter3.5
ΔV w.r.t. Earth (km/sec)8.3
semimajor axis (AU)2.3521725
mean anomaly (°)41.47619
mean daily motion (°/day)0.27321220
aphelion distance (AU)2.954
period (years)3.61
P-vector [x]0.99747740
P-vector [y]-0.00871117
P-vector [z]0.07044821
Q-vector [x]-0.02265529
Q-vector [y]0.90147076
Q-vector [z]0.43224670
absolute magnitude16.71
phase slope0.15
uncertainty0
referenceMPEC 2024-B173
observations used1234
oppositions16
arc length (days)9708
first opposition used1997
last opposition used2024
residual rms (arc-secs)0.53
perturbers coarse indicatorM-v
perturbers precise indicator003Ek
first observation date used1997-07-02.0
last observation date used2024-01-30.0
computer nameMPCLINUX
JD of orbit computation2456789.282555
perihelion JD uncertainty (days)4.5651E-05
argument of perihelion uncertainty (°)6.0337E-05
ascending node uncertainty (°)5.9429E-05
inclination uncertainty (°)4.6637E-06
eccentricity uncertainty 5.3966E-08
perihelion distance uncertainty (AU)1.2868E-07
Minimum Orbit Intersection Distances (in AU)
for orbit epoch: 2460200.5, reference: E2024-BH3
Mercury1.39048
Venus1.0337
Earth0.75198
Mars0.38167
Jupiter2.51344
Saturn6.4698
Uranus15.5178
Neptune27.6594

Observations

1246 total observations over interval: 1997 07 02.26456 – 2024 01 30.188820
These data are available for download (format description).

Date (UT) J2000 RA J2000 Dec Magn Location Ref
1997 07 02.26456 18 53 05.01 -25 47 27.7 18.8   704 – Lincoln Laboratory ETS, New Mexico MPS 42960
1997 07 02.28792 18 53 03.36 -25 47 26.4 19.2   704 – Lincoln Laboratory ETS, New Mexico MPS 42960
1997 07 02.31122 18 53 01.73 -25 47 25.0 19.2   704 – Lincoln Laboratory ETS, New Mexico MPS 42960
1997 07 02.33452 18 53 00.02 -25 47 24.6   704 – Lincoln Laboratory ETS, New Mexico MPS 42960
1997 07 02.35780 18 52 58.18 -25 47 22.1   704 – Lincoln Laboratory ETS, New Mexico MPS 42960
1999 01 11.43376 09 18 16.66 +14 50 21.6 20.4 V 691 – Steward Observatory, Kitt Peak-Spacewatch MPS 34086
1999 01 11.45531 09 18 15.47 +14 50 24.6 20.5 V 691 – Steward Observatory, Kitt Peak-Spacewatch MPS 34086
1999 01 11.47683 09 18 14.28 +14 50 27.4 20.5 V 691 – Steward Observatory, Kitt Peak-Spacewatch MPS 34086
1999 01 15.44212 09 14 31.93 +15 00 14.8 21.9 V 691 – Steward Observatory, Kitt Peak-Spacewatch MPS 79536
1999 01 15.46371 09 14 30.67 +15 00 18.5 22.0 V 691 – Steward Observatory, Kitt Peak-Spacewatch MPS 79536
1999 01 15.48525 09 14 29.33 +15 00 21.4 21.1 V 691 – Steward Observatory, Kitt Peak-Spacewatch MPS 79536
1999 01 18.28408 09 11 41.96 +15 07 56.4 21.1 V 691 – Steward Observatory, Kitt Peak-Spacewatch MPS 3716
1999 01 18.30556 09 11 40.64 +15 08 00.5 20.2 V 691 – Steward Observatory, Kitt Peak-Spacewatch MPS 3716
1999 01 18.32708 09 11 39.26 +15 08 03.8 20.3 V 691 – Steward Observatory, Kitt Peak-Spacewatch MPS 3716
1999 01 23.41046 09 06 17.49 +15 22 51.1 20.1 V 691 – Steward Observatory, Kitt Peak-Spacewatch MPS 3716
1999 01 23.43192 09 06 16.04 +15 22 54.4 20.0 V 691 – Steward Observatory, Kitt Peak-Spacewatch MPS 3716
1999 01 23.45324 09 06 14.65 +15 22 58.2 20.1 V 691 – Steward Observatory, Kitt Peak-Spacewatch MPS 3716
2001 08 22.38016 01 55 16.16 +18 45 04.4 19.2   704 – Lincoln Laboratory ETS, New Mexico MPS 35463
2001 08 22.39737 01 55 17.08 +18 45 14.1 19.6   704 – Lincoln Laboratory ETS, New Mexico MPS 35463
2001 08 22.40972 01 55 17.66 +18 45 21.3 18.9   704 – Lincoln Laboratory ETS, New Mexico MPS 35463
2001 08 22.42190 01 55 18.31 +18 45 29.2 19.2   704 – Lincoln Laboratory ETS, New Mexico MPS 35463
2001 08 22.43455 01 55 18.98 +18 45 37.0 19.3   704 – Lincoln Laboratory ETS, New Mexico MPS 35463
2001 08 28.34130 02 00 09.88 +19 40 16.1 18.2 R 699 – Lowell Observatory-LONEOS MPS 35463
2001 08 28.36792 02 00 10.96 +19 40 30.7   699 – Lowell Observatory-LONEOS MPS 35463
2001 08 28.39459 02 00 12.11 +19 40 44.9   699 – Lowell Observatory-LONEOS MPS 35463
2001 08 28.42130 02 00 13.19 +19 40 58.6   699 – Lowell Observatory-LONEOS MPS 35463
2001 09 09.42804 02 06 24.20 +21 12 45.4 18.6   704 – Lincoln Laboratory ETS, New Mexico MPS 35463
2001 09 09.44971 02 06 24.50 +21 12 53.0 18.5   704 – Lincoln Laboratory ETS, New Mexico MPS 35463
2001 09 09.46331 02 06 24.64 +21 12 57.7 19.1   704 – Lincoln Laboratory ETS, New Mexico MPS 35463
2001 09 20.32876 02 07 14.31 +22 08 43.2 18.7   704 – Lincoln Laboratory ETS, New Mexico MPS 36628
2001 09 20.34468 02 07 14.13 +22 08 46.7 19.0   704 – Lincoln Laboratory ETS, New Mexico MPS 36628
2001 09 20.37398 02 07 13.71 +22 08 53.4 19.4   704 – Lincoln Laboratory ETS, New Mexico MPS 36628
2001 09 20.39016 02 07 13.56 +22 08 57.1 19.4   704 – Lincoln Laboratory ETS, New Mexico MPS 36628
2001 09 22.33128 02 06 52.50 +22 15 41.7 19.0   704 – Lincoln Laboratory ETS, New Mexico MPS 36628
2001 09 22.37672 02 06 51.78 +22 15 49.9 19.0   704 – Lincoln Laboratory ETS, New Mexico MPS 36628
2001 09 22.39105 02 06 51.47 +22 15 52.6 19.0   704 – Lincoln Laboratory ETS, New Mexico MPS 36628
2001 09 23.32887 02 06 38.10 +22 18 44.3 18.8   704 – Lincoln Laboratory ETS, New Mexico MPS 42960
2001 09 23.37296 02 06 37.27 +22 18 51.3 19.0   704 – Lincoln Laboratory ETS, New Mexico MPS 42960
2001 09 23.38908 02 06 36.95 +22 18 54.5 18.8   704 – Lincoln Laboratory ETS, New Mexico MPS 42960
2001 10 13.42046 01 54 48.59 +22 18 14.4 18.2   644 – Palomar Mountain/NEAT MPS 37444
2001 10 13.44142 01 54 47.46 +22 18 10.5 18.4   644 – Palomar Mountain/NEAT MPS 37444
2001 10 13.46260 01 54 46.31 +22 18 06.4 18.5   644 – Palomar Mountain/NEAT MPS 37444
2001 10 18.25020 01 50 38.41 +22 00 42.9 18.4   704 – Lincoln Laboratory ETS, New Mexico MPS 38891
2001 10 18.26663 01 50 37.45 +22 00 38.9 18.7   704 – Lincoln Laboratory ETS, New Mexico MPS 38891
2001 10 18.29934 01 50 35.59 +22 00 30.9 18.5   704 – Lincoln Laboratory ETS, New Mexico MPS 38891
2001 10 18.31572 01 50 34.61 +22 00 26.8 18.4   704 – Lincoln Laboratory ETS, New Mexico MPS 38891
2001 10 19.26078 01 49 44.60 +21 56 18.5 18.5   704 – Lincoln Laboratory ETS, New Mexico MPS 38891
2001 10 19.29383 01 49 42.72 +21 56 10.0 18.3   704 – Lincoln Laboratory ETS, New Mexico MPS 38891
2001 10 19.31141 01 49 41.72 +21 56 05.3 18.2   704 – Lincoln Laboratory ETS, New Mexico MPS 38892
2001 10 19.32850 01 49 40.71 +21 56 00.5 18.0   704 – Lincoln Laboratory ETS, New Mexico MPS 38892
2001 10 20.46003 01 48 40.11 +21 50 46.1 17.3   644 – Palomar Mountain/NEAT MPS 38892
2001 10 20.48133 01 48 38.92 +21 50 39.7 17.2   644 – Palomar Mountain/NEAT MPS 38892
2001 10 20.50257 01 48 37.75 +21 50 33.2 17.5   644 – Palomar Mountain/NEAT MPS 38892
2001 10 21.25153 01 47 58.57 +21 46 57.1 18.1   704 – Lincoln Laboratory ETS, New Mexico MPS 38892
2001 10 21.26773 01 47 57.64 +21 46 52.3 18.1   704 – Lincoln Laboratory ETS, New Mexico MPS 38892
2001 10 21.28552 01 47 56.62 +21 46 47.3 18.1   704 – Lincoln Laboratory ETS, New Mexico MPS 38892
2001 10 21.30215 01 47 55.66 +21 46 42.7 18.0   704 – Lincoln Laboratory ETS, New Mexico MPS 38892
2001 10 21.31855 01 47 54.72 +21 46 37.5 18.0   704 – Lincoln Laboratory ETS, New Mexico MPS 38892
2001 10 23.24568 01 46 12.82 +21 36 45.6 18.2 V 333 – Desert Eagle Observatory MPS 38892
2001 10 23.26818 01 46 11.53 +21 36 38.1 18.1 V 333 – Desert Eagle Observatory MPS 38892
2001 10 23.28990 01 46 10.30 +21 36 31.4 18.0 V 333 – Desert Eagle Observatory MPS 38892
2001 10 28.23177 01 41 56.41 +21 08 17.7 18.3   704 – Lincoln Laboratory ETS, New Mexico MPS 38892
2001 10 28.24817 01 41 55.53 +21 08 11.0 18.4   704 – Lincoln Laboratory ETS, New Mexico MPS 38892
2001 10 28.26443 01 41 54.68 +21 08 04.9 18.2   704 – Lincoln Laboratory ETS, New Mexico MPS 38892
2001 10 28.28067 01 41 53.77 +21 07 58.3 19.0   704 – Lincoln Laboratory ETS, New Mexico MPS 38892
2001 10 28.29692 01 41 52.91 +21 07 52.5 18.6   704 – Lincoln Laboratory ETS, New Mexico MPS 38892
2001 11 11.28538 01 32 29.97 +19 37 19.9 18.1   644 – Palomar Mountain/NEAT MPS 41634
2001 11 11.30677 01 32 29.29 +19 37 11.4 18.0   644 – Palomar Mountain/NEAT MPS 41634
2001 11 11.32804 01 32 28.62 +19 37 03.0 18.2   644 – Palomar Mountain/NEAT MPS 41634
2001 11 12.22110 01 32 04.25 +19 31 19.2 18.8   704 – Lincoln Laboratory ETS, New Mexico MPS 41634
2001 11 12.23585 01 32 03.85 +19 31 13.4 19.5   704 – Lincoln Laboratory ETS, New Mexico MPS 41634
2001 11 12.25063 01 32 03.40 +19 31 07.9 19.3   704 – Lincoln Laboratory ETS, New Mexico MPS 41634
2001 11 12.26633 01 32 02.90 +19 31 00.8 19.1   704 – Lincoln Laboratory ETS, New Mexico MPS 41634
2001 11 12.28177 01 32 02.41 +19 30 55.2 18.6   704 – Lincoln Laboratory ETS, New Mexico MPS 41634
2001 11 17.28335 01 30 16.03 +19 00 03.5 18.5   644 – Palomar Mountain/NEAT MPS 41634
2001 11 17.30440 01 30 15.61 +18 59 55.5 18.4   644 – Palomar Mountain/NEAT MPS 41634
2001 11 17.32536 01 30 15.22 +18 59 47.9 18.3   644 – Palomar Mountain/NEAT MPS 41634
2001 11 21.14429 01 29 31.48 +18 38 16.7 18.1   704 – Lincoln Laboratory ETS, New Mexico MPS 41634
2001 11 21.15954 01 29 31.26 +18 38 11.7 18.3   704 – Lincoln Laboratory ETS, New Mexico MPS 41634
2001 11 21.17418 01 29 31.12 +18 38 06.3 18.5   704 – Lincoln Laboratory ETS, New Mexico MPS 41634
2001 11 21.18879 01 29 30.94 +18 38 01.7 19.0   704 – Lincoln Laboratory ETS, New Mexico MPS 41634
2001 11 21.20541 01 29 30.85 +18 37 56.9 19.3   704 – Lincoln Laboratory ETS, New Mexico MPS 41634
2001 11 24.14392 01 29 19.60 +18 22 55.6 19.0   704 – Lincoln Laboratory ETS, New Mexico MPS 42960
2001 11 24.17307 01 29 19.46 +18 22 47.0 19.7   704 – Lincoln Laboratory ETS, New Mexico MPS 42960
